Time,TemperatureF,DewpointF,PressureIn,WindDirection,WindDirectionDegrees,WindSpeedMPH,WindSpeedGustMPH,Humidity,HourlyPrecipIn,Conditions,Clouds,dailyrainin,SoftwareType,DateUTC
2013-03-12 00:29:00,45.1,33.3,30.03,East,83,7.0,10.0,63,0.00,,,0.00,VWS V14.01,2013-03-12 07:29:00,
2013-03-12 00:59:00,45.9,32.0,30.02,East,85,2.0,10.0,58,0.00,,,0.00,VWS V14.01,2013-03-12 07:59:00,
2013-03-12 01:29:00,45.3,29.6,30.02,ENE,71,5.0,10.0,54,0.00,,,0.00,VWS V14.01,2013-03-12 08:29:00,
2013-03-12 01:59:00,45.0,31.1,30.02,ENE,75,2.0,8.0,58,0.00,,,0.00,VWS V14.01,2013-03-12 08:59:00,
2013-03-12 02:29:00,46.2,30.0,30.00,ENE,75,3.0,8.0,53,0.00,,,0.00,VWS V14.01,2013-03-12 09:29:00,
2013-03-12 02:59:00,48.6,29.3,29.99,East,81,5.0,8.0,47,0.00,,,0.00,VWS V14.01,2013-03-12 09:59:00,
2013-03-12 03:29:00,47.6,30.4,29.98,East,91,5.0,11.0,51,0.00,,,0.00,VWS V14.01,2013-03-12 10:29:00,
2013-03-12 03:59:00,45.3,28.2,29.97,ENE,66,4.0,9.0,51,0.00,,,0.00,VWS V14.01,2013-03-12 10:59:00,
2013-03-12 04:29:00,47.1,28.9,29.97,East,80,5.0,9.0,49,0.00,,,0.00,VWS V14.01,2013-03-12 11:29:00,
2013-03-12 04:59:00,45.2,27.7,29.97,ENE,71,0.0,9.0,50,0.00,,,0.00,VWS V14.01,2013-03-12 11:59:00,
2013-03-12 05:29:00,44.3,29.2,29.97,ENE,74,3.0,10.0,55,0.00,,,0.00,VWS V14.01,2013-03-12 12:29:00,
2013-03-12 05:59:00,51.6,24.2,29.97,East,81,0.0,10.0,34,0.00,,,0.00,VWS V14.01,2013-03-12 12:59:00,
2013-03-12 06:29:00,58.9,19.1,29.97,NW,308,0.0,10.0,21,0.00,,,0.00,VWS V14.01,2013-03-12 13:29:00,
2013-03-12 06:59:00,60.7,18.2,29.97,East,84,0.0,19.0,19,0.00,,,0.00,VWS V14.01,2013-03-12 13:59:00,
2013-03-12 07:29:00,60.7,19.4,29.97,ENE,71,1.0,21.0,20,0.00,,,0.00,VWS V14.01,2013-03-12 14:29:00,
2013-03-12 07:59:00,61.0,23.0,29.99,East,80,0.0,12.0,23,0.00,,,0.00,VWS V14.01,2013-03-12 14:59:00,
2013-03-12 08:29:00,65.1,23.1,29.99,ENE,74,11.0,21.0,20,0.00,,,0.00,VWS V14.01,2013-03-12 15:29:00,
2013-03-12 08:59:00,66.5,24.2,30.00,ENE,72,4.0,29.0,20,0.00,,,0.00,VWS V14.01,2013-03-12 15:59:00,
2013-03-12 09:29:00,68.1,25.5,30.00,East,83,1.0,27.0,20,0.00,,,0.00,VWS V14.01,2013-03-12 16:29:00,
2013-03-12 09:59:00,69.0,26.3,30.00,NNE,30,5.0,25.0,20,0.00,,,0.00,VWS V14.01,2013-03-12 16:59:00,
2013-03-12 10:29:00,69.5,25.5,30.00,East,91,13.0,30.0,19,0.00,,,0.00,VWS V14.01,2013-03-12 17:29:00,
2013-03-12 10:59:00,70.3,26.1,30.00,East,82,9.0,31.0,19,0.00,,,0.00,VWS V14.01,2013-03-12 17:59:00,
2013-03-12 11:29:00,71.0,29.1,30.01,NE,36,2.0,32.0,21,0.00,,,0.00,VWS V14.01,2013-03-12 18:29:00,
2013-03-12 11:59:00,71.2,26.9,30.00,East,87,26.0,31.0,19,0.00,,,0.00,VWS V14.01,2013-03-12 18:59:00,
2013-03-12 12:29:00,72.4,26.5,30.00,ENE,76,20.0,27.0,18,0.00,,,0.00,VWS V14.01,2013-03-12 19:29:00,
2013-03-12 12:59:00,72.8,26.9,30.00,NE,49,8.0,28.0,18,0.00,,,0.00,VWS V14.01,2013-03-12 19:59:00,
2013-03-12 13:29:00,73.8,29.0,29.99,ENE,72,10.0,24.0,19,0.00,,,0.00,VWS V14.01,2013-03-12 20:29:00,
2013-03-12 13:59:00,74.2,30.6,29.98,East,87,10.0,25.0,20,0.00,,,0.00,VWS V14.01,2013-03-12 20:59:00,
2013-03-12 14:29:00,74.3,29.4,29.97,East,79,0.0,23.0,19,0.00,,,0.00,VWS V14.01,2013-03-12 21:29:00,
2013-03-12 14:59:00,74.1,29.2,29.97,NE,51,7.0,23.0,19,0.00,,,0.00,VWS V14.01,2013-03-12 21:59:00,
2013-03-12 15:29:00,74.5,28.2,29.96,NNE,27,9.0,22.0,18,0.00,,,0.00,VWS V14.01,2013-03-12 22:29:00,
2013-03-12 15:59:00,73.2,28.5,29.96,East,93,6.0,22.0,19,0.00,,,0.00,VWS V14.01,2013-03-12 22:59:00,
2013-03-12 16:29:00,73.4,27.4,29.96,ENE,73,9.0,18.0,18,0.00,,,0.00,VWS V14.01,2013-03-12 23:29:00,
2013-03-12 16:59:00,72.9,28.3,29.96,ESE,118,5.0,18.0,19,0.00,,,0.00,VWS V14.01,2013-03-12 23:59:00,
2013-03-12 17:29:00,73.0,27.0,29.96,NNE,23,1.0,10.0,18,0.00,,,0.00,VWS V14.01,2013-03-13 00:29:00,
2013-03-12 17:59:00,71.3,38.3,29.96,East,80,6.0,9.0,30,0.00,,,0.00,VWS V14.01,2013-03-13 00:59:00,
2013-03-12 18:29:00,69.1,41.8,29.97,NW,322,0.0,10.0,37,0.00,,,0.00,VWS V14.01,2013-03-13 01:29:00,
2013-03-12 18:59:00,64.2,41.8,29.98,NW,322,0.0,0.0,44,0.00,,,0.00,VWS V14.01,2013-03-13 01:59:00,
2013-03-12 19:29:00,56.7,40.3,29.98,ENE,73,4.0,6.0,54,0.00,,,0.00,VWS V14.01,2013-03-13 02:29:00,
2013-03-12 19:59:00,53.9,38.1,29.99,ENE,78,3.0,8.0,55,0.00,,,0.00,VWS V14.01,2013-03-13 02:59:00,
2013-03-12 20:29:00,52.5,33.9,30.00,East,80,6.0,9.0,49,0.00,,,0.00,VWS V14.01,2013-03-13 03:29:00,
2013-03-12 20:59:00,51.7,33.7,30.01,ENE,69,9.0,9.0,50,0.00,,,0.00,VWS V14.01,2013-03-13 03:59:00,
2013-03-12 21:29:00,52.2,32.1,30.02,East,92,2.0,9.0,46,0.00,,,0.00,VWS V14.01,2013-03-13 04:29:00,
2013-03-12 21:59:00,52.8,32.1,30.03,ENE,76,4.0,8.0,45,0.00,,,0.00,VWS V14.01,2013-03-13 04:59:00,
2013-03-12 22:29:00,53.2,31.9,30.03,East,79,5.0,11.0,44,0.00,,,0.00,VWS V14.01,2013-03-13 05:29:00,
2013-03-12 22:59:00,55.1,30.6,30.03,East,81,0.0,9.0,39,0.00,,,0.00,VWS V14.01,2013-03-13 05:59:00,
2013-03-12 23:29:00,55.0,31.1,30.03,East,90,0.0,6.0,40,0.00,,,0.00,VWS V14.01,2013-03-13 06:29:00,
2013-03-12 23:59:00,55.0,27.9,30.02,East,90,0.0,6.0,35,0.00,,,0.00,VWS V14.01,2013-03-13 06:59:00,